Terminal Aerodrome Forecast
Issued by NWS

Home | Current Version | Previous Version | Text Only | Print | Product List | Glossary On
Versions: 1 2 3 4 5 6 7 8 9 10 11 12 13 14 15 16 17 18 19 20 21 22 23 24 25 26 27 28 29
000
FTUS46 KMTR 202300
TAFSFO
TAF
KSFO 202340Z 2100/2206 29016KT P6SM SCT015
     FM210300 29006KT P6SM BKN012
     FM211800 29005KT P6SM SCT015
     FM212000 29015KT P6SM FEW015
     FM220400 29010KT P6SM SCT015=

USA.gov is the U.S. government's official web portal to all federal, state and local government web resources and services.